Location: Fort Frances
(48.6170°N, 93.4170°W)
Time: 13:54:46
(UTC-06:00)

Daily predictions for brighter satellites

Satellite Brightness Start Highest point End
(mag) Time Altitude Azimuth Time Altitude Azimuth Time Altitude Azimuth
Cosmos 1420 Rocket 4.3 18:14:08 10° NNW 18:19:26 80° WSW 18:24:45 10° SSE
Cosmos 1437 Rocket 3.9 18:17:10 10° SSE 18:20:33 25° E 18:23:57 10° NE
FENGYUN 3A 3.8 18:19:18 10° SSE 18:24:43 88° WSW 18:30:11 10° NNW
Cosmos 1943 3.9 18:19:55 10° NNW 18:25:02 33° NE 18:30:08 10° ESE
SeaSat 1 3.5 18:23:23 10° E 18:27:27 27° NE 18:31:33 10° N
Cosmos 1184 Rocket 4.4 18:26:56 10° NNE 18:29:08 16° ENE 18:31:19 10° ESE
SPOT 3 Rocket 3.6 18:23:59 10° SSE 18:29:10 72° ENE 18:34:25 10° NNW
Cosmos 1378 Rocket 3.5 18:25:33 10° N 18:29:59 74° ENE 18:34:26 10° SSE
DNEPR-1 R/B 4.4 18:26:38 10° WSW 18:30:43 49° NW 18:35:11 10° NNE
Cosmos 405 3.7 18:30:54 10° SSW 18:34:22 57° WNW 18:37:52 10° N
Cosmos 1513 Rocket 4.5 18:32:19 10° N 18:38:42 76° E 18:44:56 10° SSE
ERS-2 2.4 18:37:43 10° SE 18:41:15 46° ENE 18:44:48 10° N
Gbstr 26 Del rocket 4.0 18:38:27 10° SSW 18:41:28 23° SE 18:43:58 13° E
Resurs 01 Rocket 3.0 18:38:58 10° ESE 18:42:05 19° ENE 18:45:12 10° NNE
Cosmos 2227 Rocket 3.2 18:36:50 10° SW 18:42:17 48° NW 18:47:48 10° NNE
Okean 3 4.3 18:41:30 10° NNW 18:45:36 55° W 18:49:41 10° S
SL-16 R/B 3.5 18:41:27 10° NW 18:46:49 44° WSW 18:52:08 10° S
FengYun 1-2 T 4.2 18:41:43 10° SSE 18:47:11 70° ENE 18:52:39 10° N
Cosmos 1782 Rocket 3.8 18:43:15 10° SSE 18:47:30 48° E 18:51:45 10° NNE
NOSS 3-2 (C) 4.2 18:44:17 10° WSW 18:50:17 55° NW 18:57:03 10° NE
Envisat 3.5 18:48:49 10° SE 18:53:31 39° ENE 18:58:14 10° N
COSMO-SKYMED 1 3.3 18:49:53 10° N 18:54:10 58° WNW 18:58:26 10° SSW
Aureole 3 4.3 18:49:52 10° SSW 18:55:01 61° WNW 18:59:03 10° N
FREGAT/IRIS 2.5 18:52:07 10° SSE 18:55:04 65° ENE 18:58:01 10° N
Cosmos 2297 Rocket 3.3 18:50:06 10° SW 18:55:31 45° NW 19:00:58 10° NNE
H-2A R/B 2.9 18:53:13 10° S 18:57:08 81° WSW 19:01:03 10° NNW
HJ-1C 3.6 18:54:03 10° SSE 18:57:21 49° ENE 19:00:41 10° N
SL-8 R/B 3.7 18:53:19 10° WSW 18:58:06 78° SSE 19:01:40 18° E
CZ-4C R/B 3.0 18:51:21 10° NW 18:58:08 58° NE 19:05:22 12° ESE
CENTAUR R/B 2.6 18:54:30 10° SW 19:00:40 87° NW 19:07:50 10° NE
Cosmos 1939 Rocket 4.1 18:59:32 17° ESE 19:01:22 23° ENE 19:04:39 10° NNE
Cosmos 1110 Rocket 4.0 18:59:59 10° NNW 19:05:19 80° ENE 19:10:38 10° SSE
Cosmos 921 Rocket 4.1 19:01:12 10° NNW 19:05:36 50° WSW 19:09:55 10° S
Cosmos 1603 3.7 19:00:23 10° NNW 19:06:05 85° WSW 19:11:42 10° SSE
Sich 1 Rocket 3.6 19:02:47 10° S 19:07:16 84° W 19:11:45 10° N
USA 267 3.8 19:03:53 16° E 19:08:54 48° NNE 19:15:08 10° WNW
USA 186 2.6 19:10:53 27° E 19:11:40 30° ENE 19:14:38 10° N
Tsikada Rocket 4.0 19:06:33 10° S 19:12:53 68° E 19:19:16 10° NNE
Thor Agena Rocket 3.8 19:08:27 10° NNE 19:13:17 41° E 19:18:02 10° S
Cosmos 1269 Rocket 4.0 19:09:25 10° SSW 19:14:43 89° ESE 19:20:03 10° NNE
SJ-6B 2.6 19:11:54 10° SSE 19:15:42 74° ENE 19:19:38 10° N
Okean 2 Rocket 3.0 19:12:27 10° S 19:16:47 59° E 19:21:09 10° NNE
Meteor 1-4 Rocket 2.6 19:13:22 10° S 19:16:49 50° E 19:20:20 10° NNE
COSMOS 2455 3.2 19:11:48 10° S 19:17:23 41° ESE 19:23:00 10° NE
Iridium 4 Rocket 3.9 19:13:03 10° N 19:17:46 58° W 19:22:06 10° SSW
USA 32 4.2 19:14:06 10° S 19:19:20 79° W 19:24:36 10° N
Cosmos 2263 Rocket 2.8 19:14:30 10° SSE 19:19:25 33° ESE 19:24:22 10° NE
CZ-2D R/B 3.1 19:19:43 10° SSE 19:23:37 76° ENE 19:27:31 10° N
Meteor 1-13 Rocket 4.1 19:19:52 10° NNW 19:25:26 89° E 19:30:58 10° S
Cosmos 2151 Rocket 3.9 19:22:29 10° SSE 19:26:41 41° E 19:30:53 10° NNE
Cosmos 1602 3.9 19:25:47 10° SSW 19:29:40 73° W 19:33:33 10° N
Cosmos 1331 Rocket 4.3 19:28:56 10° NNW 19:34:14 69° WSW 19:39:29 10° S
ATLAS 3B R/B 4.3 19:29:18 10° WNW 19:35:13 28° NNW 19:40:57 10° NE
ATLAS CENTAUR R/B 1.4 19:32:40 10° NW 19:36:50 82° SW 19:39:07 27° SSE
YAOGAN 6 2.8 19:37:32 46° ENE 19:37:32 46° ENE 19:40:54 10° N
Cosmos 2279 Rocket 4.2 19:35:19 10° N 19:41:23 49° ENE 19:44:58 24° SE
Cosmos 2346 Rocket 4.4 19:36:31 10° S 19:42:42 85° E 19:48:52 10° N
Spot 2 Rocket 3.5 19:40:28 28° SE 19:42:57 56° ENE 19:47:56 10° N
H-2A R/B 3.6 19:47:17 20° NE 19:47:17 20° NE 19:50:26 10° NNE
ARGOS Delta rocket 3.7 19:43:38 10° NNE 19:48:29 89° ESE 19:53:03 10° SSW
Meteor 2-4 Rocket 4.0 19:44:21 10° NNW 19:50:08 71° W 19:55:43 10° S
Cosmos 2227 4.5 19:46:01 10° SW 19:51:44 70° WNW 19:57:26 10° NNE
Meteor 1-5 Rocket 4.2 19:49:53 10° S 19:55:47 72° E 20:01:46 10° NNE
Resurs 1-3 3.5 19:54:18 32° SSE 19:56:21 88° ENE 20:00:46 10° NNW
Cosmos 2082 Rocket 4.3 19:57:39 10° N 19:59:31 12° NNE 20:00:08 11° NE
Alouette 2 Rocket 3.4 19:56:06 10° SSW 19:59:38 73° WNW 20:03:50 10° N
Cosmos 2251 Rocket 3.3 19:57:28 10° SSW 20:02:40 72° ESE 20:07:55 10° NNE
Cosmos 1634 Rocket 4.1 19:58:10 10° NNW 20:04:19 74° W 20:10:28 10° S
Cosmos 1536 2.9 20:00:26 10° SSW 20:04:29 79° W 20:08:35 10° N
SeaSat 1 2.8 20:01:41 24° SSE 20:04:40 63° WSW 20:09:35 10° NW
NOAA 11 4.1 20:05:26 53° ESE 20:06:19 60° ENE 20:11:41 10° N
Cosmos 1302 Rocket 4.3 20:01:24 10° NNW 20:06:33 63° WSW 20:09:51 22° S
Cosmos 1066 Rocket 4.4 20:01:42 10° N 20:07:22 49° ENE 20:07:30 49° ENE
Cosmos 1943 4.0 20:03:51 10° NW 20:09:19 50° WSW 20:14:04 14° S
Cosmos 1515 4.3 20:07:21 10° N 20:10:12 49° N 20:10:12 49° N
USA 215 3.3 20:14:51 49° ESE 20:15:55 54° SE 20:22:17 10° SSW
Okean 2 4.4 20:12:41 10° N 20:15:20 37° N 20:15:20 37° N
Meteor 1-11 Rocket 4.3 20:12:25 10° SSW 20:17:57 58° WNW 20:23:40 10° N
Resurs 01 Rocket 2.1 20:16:18 32° SSW 20:18:10 57° W 20:22:33 10° NNW
Cosmos 1536 Rocket 4.4 20:15:53 10° NNW 20:20:10 50° W 20:22:22 26° SSW
COSMOS 2406 3.9 20:15:59 10° NNW 20:20:47 39° NE 20:20:47 39° NE
Cosmos 1025 Rocket 3.9 20:21:33 10° N 20:24:28 41° N 20:24:28 41° N
Gbstr 26 Del rocket 3.8 20:24:04 10° WSW 20:26:33 40° WSW 20:26:33 40° WSW
Cosmos 1939 Rocket 4.2 20:35:27 35° WSW 20:36:07 38° W 20:39:58 10° NNW
SL-8 R/B 4.2 20:35:52 10° W 20:39:39 56° W 20:39:39 56° W
Meteor 2-20 4.3 20:40:55 45° S 20:43:01 89° W 20:49:14 10° N
CZ-4C R/B 3.7 20:40:01 10° NW 20:46:48 46° WSW 20:50:37 27° S
USA 267 3.1 20:51:14 81° ESE 20:51:37 88° NNE 20:58:12 10° NW
CENTAUR R/B 4.1 20:46:27 10° W 20:52:19 33° NNW 20:57:44 15° NE
Cosmos 2263 Rocket 3.1 20:57:49 10° SW 21:03:11 46° NW 21:06:39 21° N
COSMOS 2455 3.8 20:57:32 10° WSW 21:03:18 46° NW 21:06:36 24° NNE
ARGOS 4.1 21:13:34 43° NNW 21:13:34 43° NNW 21:17:11 10° NNW
ATLAS CENTAUR R/B 4.3 21:13:41 10° W 21:15:13 12° WSW 21:15:25 12° WSW
H-2A R/B 3.6 21:27:54 33° NNW 21:27:54 33° NNW 21:30:50 10° NNW
ATLAS 3B R/B 4.3 21:22:54 10° NW 21:28:12 23° N 21:29:02 22° NNE
Cosmos 2082 Rocket 4.2 21:40:04 10° NNW 21:41:59 20° N 21:41:59 20° N
